Location: Ellen Observatory
(29.0040°N, 81.3000°W)
Time: 03:45:49
(UTC-05:00)

ISS - Visible Passes

Search period start: 11 December 2018 00:00
Search period end: 21 December 2018 00:00
Orbit: 401 x 408 km, 51.6° (Epoch: 12 December)

Date Brightness Start Highest point End Pass type
(mag) Time Alt. Az. Time Alt. Az. Time Alt. Az.
11 Dec -2.1 18:28:41 10° N 18:30:39 18° NNE 18:30:39 18° NNE visible
12 Dec -2.9 19:12:10 10° NW 19:14:35 44° WNW 19:14:35 44° WNW visible
13 Dec -3.7 18:20:01 10° NNW 18:23:12 49° NE 18:26:21 10° ESE visible
14 Dec -1.0 19:04:48 10° WNW 19:07:14 20° SW 19:09:40 10° S visible
15 Dec -2.6 18:12:00 10° NW 18:15:08 46° SW 18:18:15 10° SSE visible
17 Dec -0.4 18:04:57 10° W 18:06:52 15° SW 18:08:47 10° SSW visible
